sat.trackr.live / text

‹ back to catalog

STARLINK-31526

NORAD 59016 · 2024-036U

PAYLOAD ACTIVE UNKNOWN

§ Identity

Operator
Country
US
Launch date
2024-02-23
Launch site
AFWTR
Launch vehicle
Mass (kg)
RCS (m²)

Purposes: comms

External: N2YO · Heavens-Above · Gunter

§ Orbital elements

Epoch: 2026-05-25T04:19:07.832064Z

Period
94.01 min
Inclination
53.1612°
Eccentricity
0.0000919
Mean motion
15.31705063 rev/d
Perigee alt
470.1 km
Apogee alt
471.4 km
Semi-major
6,848.9 km
B*
3.4316e-5
RAAN
57.2657°
Arg perigee
69.2459°
Mean anomaly
290.8641°
Rev number
12,739

§ Raw data

STARLINK-315261 59016U 24036U   26145.17995176  .00000700  00000+0  34316-4 0  99962 59016  53.1612  57.2657 0000919  69.2459 290.8641 15.31705063127390

JSON: /api/v1/satellites/59016 · /tle

For live sub-satellite position, see the globe view (requires WebGL).

§ Visibility from observer

Set your observer location to see the next 7 days of passes ≥ 10°. The values pass through the URL so the page stays shareable.

No JS? Fill the form by hand. The geolocation button needs JavaScript.